{"data":{"norad_id":28885,"epoch":"2026-09-11T12:27:56.057184Z","epoch_age_seconds":790337,"freshness":"AGED","line1":"1 28885U 05041B   26254.51939881  .00000114  00000+0  00000+0 0  9998","line2":"2 28885   4.8548  74.7263 0002457 106.5771  42.9291  1.00275934 76614","mean_motion":1.00275934,"eccentricity":0.0002457,"inclination_deg":4.8548,"raan_deg":74.7263,"arg_perigee_deg":106.5771,"mean_anomaly_deg":42.9291,"bstar":0,"rev_number":7661,"period_min":1436.037484328,"perigee_km":35775.072297107,"apogee_km":35795.791474857,"semimajor_km":42163.568885982,"source":"CELESTRAK","updated_at":"2026-09-20T09:00:35.125389Z"}}